CZ-6A DEB, 55887

Orbit data source: Space-Track

CZ-6A DEB, 55887 is space debris in SSO originally from a launch on Fri, 11 Nov 2022 UTC launched from the Taiyaun Space Center, China (TSC). Debris objects in space refer to the collection of defunct objects orbiting the Earth. Examples of debris include non-operational satellites, rocket bodies, and fragments generated from explosions, collisions, or faulty payload assembly.

Loading next visibility...
Identifier
55887, 2022-151AAK
Orbit
SSO
Country
Flag of CNCN / PRC
Related business
Manufacturer
SAST
Mission
Spacecraft
Bus & Motor
Unknown
Mass
Unknown
Launch date (UTC)
2022-11-11 (3 years ago)
Launch vehicle
Unknown
Launch site
Taiyaun Space Center, China (TSC)
Object type
Payload
Rocket body
Debris
Shape & HBR
Unknown shape, 0.1 m
Radar Cross Section
Small (<0.1 m²)

Expand to show TLE details & history
Last TLE update: 2 days ago

TLE from 2 days ago
0 CZ-6A DEB
1 55887U 22151AAK 25351.01121901  .00004385  00000-0  17086-2 0  9999
2 55887  98.7982   6.5816 0051789 130.0572 230.5169 14.29491358155094
Epoch: 2025-12-17T00:16Z
TLE epoch observation values (Epoch: 2025-12-17T00:16:09.322Z)
Latitude
Longitude
-83.34445°
Altitude
820.091 km
Speed
7.431 km/s
True Right ascension
00h 26m 19s
True Declination
0° 00' 00"
Sunlit
Object was in daylight at epoch
Visualization orbit readout
Latitude
Unknown
Longitude
Unknown
Altitude
Unknown
Speed
Unknown
Apparent Right ascension
Unknown
Apparent Declination
Unknown
Sunlit
N/A
Visualization observer readout
Local Sidereal Time
19:25:33
Azimuth
Unknown
Elevation
Unknown
Doppler factor
Unknown
Orbital elements
Apogee altitude
827.708 km
Perigee altitude
753.456 km
Semi-major axis
7,168.719 km
Eccentricity
0.00518
Inclination
98.7982°
RAAN
6.5816°
Arg. of periapsis
130.0572°
True anomaly
230.06074°
Mean anomaly
230.5169°
Eccentric anomaly
230.28863°
Mean motion
3.57586 °/min
Orbital period
100.67 mins
BSTAR
0.0017086
Loading maneuver chart data...
Computing Atmospheric mass density...
Loading historical data...
Loading historical data...
Loading historical data...
Loading historical data...
Loading historical data...
Loading historical data...
Loading historical data...

Documentation

Showing up to 5 results
|